Regional Weather Roundup
Issued by NWS

Home | Current Version | Previous Version | Graphics & Text | Print | Product List | Glossary Off
Versions: 1 2 3 4 5 6 7 8 9 10 11 12 13 14 15 16 17 18 19 20 21 22 23 24 25 26 27 28 29 30 31 32 33 34 35 36 37 38 39 40 41 42 43 44 45 46 47 48 49 50

000
ASUS43 KDMX 281307
RWRIA

WEATHER ROUNDUP FOR IOWA
NATIONAL WEATHER SERVICE DES MOINES IA
700 AM CST SUN DEC 28 2014

NOTE: "FAIR" INDICATES FEW OR NO CLOUDS BELOW 12,000 FEET WITH NO
SIGNIFICANT WEATHER AND/OR OBSTRUCTIONS TO VISIBILITY.

* - THESE STATIONS ARE NOT NWS STATIONS...THUS NOT UNDER NWS
QUALITY CONTROL.  THEY ALSO DO NOT REPORT WEATHER SUCH
AS PRECIPITATION OR FOG.

IAZ001>003-012>014-020>022-031>034-043>046-281400-
   NORTHWEST IOWA

CITY           SKY/WX    TMP DP  RH WIND       PRES   REMARKS
CARROLL *      CLEAR     16  12  86 SW3       30.11S
CHEROKEE *     CLEAR      5   3  92 CALM      30.11R
DENISON *      CLEAR     12  10  92 CALM      30.10R
LE MARS *      CLEAR      1   0  92 CALM      30.11S
ORANGE CITY *  CLEAR     10   7  85 CALM      30.07F
SHELDON *      CLEAR      1  -2  85 CALM      30.08S
SIOUX CITY     CLEAR      4   0  83 E3        30.12S
SPENCER        CLEAR      6   1  80 CALM      30.09S
STORM LAKE *   CLEAR      9   7  92 CALM      30.09S
$$

IAZ055>058-069>071-079>083-090>094-281400-
   SOUTHWEST IOWA

CITY           SKY/WX    TMP DP  RH WIND       PRES   REMARKS
ATLANTIC *     CLEAR     14  12  92 SW5       30.13S WCI   6
AUDUBON *      CLEAR     14   9  79 S5        30.11S WCI   6
CLARINDA *     CLEAR     14  12  92 CALM      30.18F
COUNCIL BLFS * CLEAR     16  16 100 S6        30.12S WCI   7
CRESTON *      CLEAR     16  14  93 CALM      30.13F
HARLAN  *      CLEAR     12  12 100 S3        30.16S
LAMONI         CLEAR     16  13  88 SW6       30.15F WCI   7
RED OAK *      CLEAR     16  14  93 S6        30.16S WCI   7
SHENANDOAH *   CLEAR     16  14  93 S6        30.17S WCI   7
$$

IAZ047>049-059>061-072>074-084-281400-
   CENTRAL IOWA

CITY           SKY/WX    TMP DP  RH WIND       PRES   REMARKS
AMES           CLEAR     15  11  83 CALM      30.15S
ANKENY *       CLEAR     16  12  86 S3        30.15F
CHARITON *       N/A     16  14  93 SW6       30.16S WCI   7
DES MOINES     PTCLDY    16  11  80 S5        30.16S WCI   9
GRINNELL*      CLEAR     14  12  92 SW5       30.15S WCI   6
KNOXVILLE *    CLEAR     16  12  86 SW5       30.15F WCI   9
MARSHALLTOWN   CLEAR     13  11  92 S3        30.14S
PELLA *          N/A     18  16  93 SW5       30.18S WCI  11
PERRY *          N/A     14  14 100 S7        30.13S WCI   4
$$

IAZ004>006-015-016-023>025-035-036-281400-
   NORTH CENTRAL IOWA

CITY           SKY/WX    TMP DP  RH WIND       PRES   REMARKS
ALGONA *       CLEAR      7   5  92 S7        30.11S WCI  -5
CLARION *      CLEAR      9   7  92 S8        30.11F WCI  -4
ESTHERVILLE    CLEAR      7   4  87 SW8       30.08S WCI  -6
FORT DODGE *   CLEAR     10   7  85 CALM      30.13R
MASON CITY     CLEAR      3  -1  83 S6        30.11S WCI  -8
FOREST CITY *  CLEAR      9   3  78 CALM      30.10R
IOWA FALLS *     N/A     14  10  85 CALM      30.14R
$$

IAZ007>011-017>019-026>030-037>042-050>054-066-281400-
   NORTHEAST IOWA

CITY           SKY/WX    TMP DP  RH WIND       PRES   REMARKS
CEDAR RAPIDS   CLEAR     13  11  92 SW5       30.15F WCI   5
CHARLES CITY * CLEAR     10   7  85 SW5       30.12F WCI   2
CLINTON *      CLEAR     14  10  85 SW5       30.20S WCI   6
DECORAH *      CLEAR     12  10  92 SW3       30.11S
DUBUQUE        CLEAR     15  12  88 W5        30.13F WCI   8
MONTICELLO *   CLEAR     16  14  93 W3        30.16S
OELWEIN *      CLEAR     12  10  92 SW5       30.14S WCI   4
WATERLOO         N/A     13  11  92 S3        30.15S
$$

IAZ064-065-067-068-078-281400-
   EAST CENTRAL IOWA

CITY           SKY/WX    TMP DP  RH WIND       PRES   REMARKS
DAVENPORT      CLEAR     17  12  80 W6        30.18S WCI   9
IOWA CITY      CLEAR     15  13  91 CALM      30.20S
MT. PLEASANT * PTCLDY    19  19 100 CALM      30.20R
MUSCATINE *    CLEAR     18  14  86 CALM      30.21R
QUAD CITIES    PTCLDY    18  14  84 SW5       30.19S WCI  11
$$

IAZ062-063-075>077-085>089-095>099-281400-
   SOUTHEAST IOWA

CITY           SKY/WX    TMP DP  RH WIND       PRES   REMARKS
BURLINGTON     MOCLDY    23  20  88 S3        30.20R
FAIRFIELD *    CLEAR     19  16  86 S5        30.19R WCI  13
FORT MADISON * CLEAR     25  21  86 SW3       30.21R
KEOKUK *       CLEAR     25  21  86 CALM      30.20S
OSKALOOSA *      N/A     14  12  92 SW5       30.18S WCI   6
CENTERVILLE *  CLEAR     16  16 100 SW5       30.19R WCI   9
OTTUMWA        CLEAR     16  12  84 SW3       30.18S
WASHINGTON *   CLEAR     16  18 100 SW3       30.19R
$$

ABBREVIATIONS USED IN REMARKS
   TC - TEMPERATURES IN CELSIUS
  WCI - WIND CHILL INDEX
   HX - HEAT INDEX
  VSB - VISIBILITY
$$



USA.gov is the U.S. government's official web portal to all federal, state and local government web resources and services.